Location: Unspecified
(0.0000°N, 0.0000°E)
Time: 06:30:50
(UTC+00:00)

Vanguard 2 Rocket - All Passes

Search period start: 19 June 2018 00:00
Search period end: 29 June 2018 00:00
Orbit: 553 x 3328 km, 32.9° (Epoch: 18 June)

Date Brightness Start Highest point End Pass type
(mag) Time Alt. Az. Time Alt. Az. Time Alt. Az.
19 Jun - 03:31:20 10° S 03:37:07 15° SSE 03:44:19 10° ESE visible
19 Jun - 05:41:13 10° SW 05:54:26 49° SE 06:13:16 10° ENE daylight
19 Jun - 07:55:23 10° WSW 08:12:43 76° NW 08:33:02 10° NE daylight
19 Jun - 10:15:33 10° W 10:32:44 35° NNW 10:48:17 10° NNE daylight
19 Jun - 12:46:06 10° NW 12:54:19 14° NNW 13:01:15 10° NNE daylight
19 Jun - 17:27:53 10° NNW 17:33:06 19° NNE 17:36:57 10° ENE daylight
19 Jun - 19:41:53 10° WNW 19:47:01 63° SW 19:50:55 10° SE visible
20 Jun - 04:42:18 10° SSW 04:53:05 34° SE 05:08:51 10° E visible
20 Jun - 06:54:53 10° SW 07:10:26 86° SE 07:31:11 10° NE daylight
20 Jun - 09:12:17 10° W 09:29:56 45° NNW 09:47:55 10° NE daylight
20 Jun - 11:38:42 10° WNW 11:51:21 20° NNW 12:02:00 10° NNE daylight
20 Jun - 14:11:26 10° NNW 14:13:34 10° N 14:15:32 10° N daylight
20 Jun - 16:27:34 10° NNW 16:32:39 16° NNE 16:36:34 10° NE daylight
20 Jun - 18:41:30 10° NW 18:47:50 62° NNE 18:52:03 10° ESE visible
20 Jun - 20:59:24 10° SW 21:00:31 11° SW 21:01:35 10° SSW visible
21 Jun - 03:44:06 10° S 03:52:03 22° SE 04:03:09 10° E visible
21 Jun - 05:55:06 10° SW 06:08:36 67° SE 06:28:32 10° ENE daylight
21 Jun - 08:10:20 10° WSW 08:27:13 58° NW 08:46:57 10° NE daylight
21 Jun - 10:32:51 10° WNW 10:48:12 26° NNW 11:02:05 10° NNE daylight
21 Jun - 13:04:28 10° NNW 13:10:55 13° N 13:16:28 10° NNE daylight
21 Jun - 15:26:32 10° NNW 15:31:39 14° N 15:35:45 10° NE daylight
21 Jun - 17:41:02 10° NW 17:48:13 37° NNE 17:52:50 10° E daylight
21 Jun - 19:57:06 10° W 20:01:17 25° SW 20:04:41 10° SSE visible
22 Jun - 02:47:41 10° SSE 02:51:13 12° SE 02:55:20 10° SE visible
22 Jun - 04:55:55 10° SSW 05:07:18 48° SE 05:24:59 10° ENE visible
22 Jun - 07:09:24 10° WSW 07:24:47 73° NW 07:45:23 10° NE daylight
22 Jun - 09:28:38 10° W 09:45:05 34° NNW 10:01:39 10° NNE daylight
22 Jun - 11:57:25 10° NW 12:07:46 16° NNW 12:16:36 10° NNE daylight
22 Jun - 14:24:19 10° NNW 14:30:00 13° N 14:34:40 10° NNE daylight
22 Jun - 16:40:18 10° NNW 16:48:06 27° NNE 16:53:12 10° ENE daylight
22 Jun - 18:55:56 10° WNW 19:02:15 58° SW 19:06:29 10° SE visible
23 Jun - 03:57:20 10° SSW 04:06:28 32° SE 04:20:27 10° E visible
23 Jun - 06:09:16 10° SW 06:22:47 88° SE 06:43:08 10° NE daylight
23 Jun - 08:25:55 10° W 08:42:06 43° NNW 09:00:43 10° NE daylight
23 Jun - 10:50:58 10° WNW 11:04:18 21° NNW 11:16:17 10° NNE daylight
23 Jun - 13:20:30 10° NNW 13:27:38 14° N 13:33:33 10° NNE daylight
23 Jun - 15:39:09 10° NNW 15:47:25 22° NNE 15:53:07 10° ENE daylight
23 Jun - 17:54:53 10° NW 18:02:58 74° NNE 18:07:49 10° ESE daylight
23 Jun - 20:14:19 10° SW 20:15:34 11° SW 20:16:45 10° SSW visible
24 Jun - 02:59:37 10° S 03:05:59 19° SE 03:14:46 10° ESE visible
24 Jun - 05:09:49 10° SW 05:21:23 68° SE 05:40:12 10° ENE visible
24 Jun - 07:24:24 10° WSW 07:39:26 55° NNW 07:59:15 10° NE daylight
24 Jun - 09:45:52 10° WNW 10:00:48 26° NNW 10:15:35 10° NNE daylight
24 Jun - 12:15:13 10° NW 12:24:34 15° N 12:32:28 10° NNE daylight
24 Jun - 14:37:23 10° NNW 14:46:08 19° NNE 14:52:29 10° NE daylight
24 Jun - 16:53:44 10° NW 17:03:11 47° NNE 17:08:45 10° ESE daylight
24 Jun - 19:11:15 10° W 19:16:25 26° SW 19:20:11 10° SSE visible
25 Jun - 04:10:56 10° SSW 04:20:35 47° SE 04:36:32 10° ENE visible
25 Jun - 06:23:51 10° WSW 06:37:13 70° NW 06:57:16 10° NE daylight
25 Jun - 08:42:16 10° W 08:57:28 33° NNW 09:14:29 10° NNE daylight
25 Jun - 11:09:17 10° NW 11:20:58 18° N 11:31:20 10° NNE daylight
25 Jun - 13:34:47 10° NNW 13:44:08 17° N 13:51:18 10° NE daylight
25 Jun - 15:52:20 10° NW 16:02:51 34° NNE 16:09:14 10° E daylight
25 Jun - 18:09:25 10° WNW 18:17:19 56° SW 18:22:08 10° SE daylight
26 Jun - 03:12:40 10° SSW 03:20:17 30° SE 03:32:07 10° E visible
26 Jun - 05:24:02 10° SW 05:35:35 89° NW 05:54:45 10° NE visible
26 Jun - 07:40:03 10° W 07:54:30 41° NNW 08:12:59 10° NE daylight
26 Jun - 10:03:47 10° WNW 10:17:08 21° NNW 10:30:02 10° NNE daylight
26 Jun - 12:31:10 10° NNW 12:41:22 17° N 12:49:38 10° NE daylight
26 Jun - 14:50:35 10° NNW 15:01:53 28° NNE 15:09:12 10° ENE daylight
26 Jun - 17:07:43 10° NW 17:17:53 84° NE 17:23:33 10° ESE daylight
26 Jun - 19:28:14 10° WSW 19:30:34 12° SW 19:32:36 10° SSW visible
27 Jun - 02:15:24 10° S 02:20:14 16° SE 02:26:37 10° ESE visible
27 Jun - 04:24:51 10° SW 04:34:38 68° SE 04:51:43 10° ENE visible
27 Jun - 06:38:56 10° WSW 06:52:00 51° NNW 07:11:05 10° NE daylight
27 Jun - 08:59:26 10° WNW 09:13:24 25° NNW 09:28:31 10° NNE daylight
27 Jun - 11:26:39 10° NW 11:37:54 17° N 11:47:39 10° NE daylight
27 Jun - 13:48:24 10° NNW 14:00:15 24° NNE 14:08:32 10° ENE daylight
27 Jun - 16:05:57 10° NW 16:17:53 56° NNE 16:24:32 10° ESE daylight
27 Jun - 18:24:48 10° W 18:31:24 28° SW 18:35:50 10° SSE visible
28 Jun - 03:26:12 10° SSW 03:34:19 45° SE 03:48:10 10° ENE visible
28 Jun - 05:38:41 10° WSW 05:50:07 65° NNW 06:08:50 10° NE visible
28 Jun - 07:56:26 10° WNW 08:10:03 31° NNW 08:26:45 10° NNE daylight
28 Jun - 10:21:44 10° NW 10:33:58 18° N 10:45:28 10° NNE daylight
28 Jun - 12:45:41 10° NNW 12:57:53 21° NNE 13:07:08 10° NE daylight
28 Jun - 15:04:01 10° NW 15:17:15 42° NNE 15:25:01 10° E daylight
28 Jun - 17:22:20 10° WNW 17:32:09 55° SW 17:37:48 10° SE daylight
